This is the latest recevied weather packets stored in our database for station/object KC1DMA. If no packets are shown the sender has not sent any weather packets the latest 10 day(s).
| Time | Temp. | Humidity | Pressure | Rain* | Wind** | Luminosity | Snow |
|---|---|---|---|---|---|---|---|
| 1778023112 | 18.89° C | 63% | 1010.9 hPa | - | - | 35 W/m² | - |
| 1778022810 | 18.89° C | 62% | 1010.7 hPa | - | - | 42 W/m² | - |
| 1778022507 | 18.89° C | 62% | 1010.5 hPa | - | - | 46 W/m² | - |
| 1778022204 | 18.89° C | 62% | 1010.4 hPa | - | - | 48 W/m² | - |
| 1778021901 | 19.44° C | 61% | 1010.6 hPa | - | - | 49 W/m² | - |
| 1778021598 | 19.44° C | 61% | 1010.4 hPa | - | - | 65 W/m² | - |
| 1778021293 | 20° C | 60% | 1010.2 hPa | - | - | 79 W/m² | - |
| 1778020991 | 20° C | 60% | 1010.5 hPa | - | - | 91 W/m² | - |
| 1778020688 | 20° C | 60% | 1010.3 hPa | - | - | 91 W/m² | - |
| 1778020386 | 20° C | 60% | 1010.6 hPa | - | - | 114 W/m² | - |
| 1778020081 | 20° C | 60% | 1010.5 hPa | - | - | 114 W/m² | - |
| 1778019777 | 20° C | 60% | 1010.6 hPa | - | - | 131 W/m² | - |
| 1778019475 | 20.56° C | 60% | 1010.6 hPa | - | - | 138 W/m² | - |
| 1778019171 | 20° C | 60% | 1010.4 hPa | - | - | 151 W/m² | - |
| 1778018868 | 20.56° C | 60% | 1010.4 hPa | - | - | 171 W/m² | - |
| 1778018565 | 20.56° C | 59% | 1010.4 hPa | - | - | 184 W/m² | - |
| 1778018263 | 20.56° C | 58% | 1010.3 hPa | - | - | 197 W/m² | - |
| 1778017961 | 21.11° C | 58% | 1010.3 hPa | - | - | 202 W/m² | - |
| 1778017659 | 21.11° C | 58% | 1010.4 hPa | - | - | 245 W/m² | - |
| 1778017356 | 21.11° C | 58% | 1010.4 hPa | - | - | 272 W/m² | - |
| 1778017053 | 21.67° C | 56% | 1010 hPa | - | - | 296 W/m² | - |
| 1778016750 | 21.11° C | 58% | 1010.3 hPa | - | - | 325 W/m² | - |
| 1778016446 | 21.11° C | 57% | 1010.1 hPa | - | - | 331 W/m² | - |
| 1778016143 | 21.11° C | 57% | 1010.1 hPa | - | - | 317 W/m² | - |
| 1778015835 | 21.11° C | 58% | 1010.1 hPa | - | - | 210 W/m² | - |
* Rain since midnight (hover to see other rain measurements)
** Current wind speed in m/s (hover to see current wind gust speed)